• In Germany
  • List of Countries
  • For 7 days
  • Water Temperature
  • Satellite Maps
  • Weather Map
  • Weather Widgets
  • user-avatar
    Login

    Hourly Weather Townsville

    Today, 25 November, Saturday

    Time Temperature Precipitation Wind Pressure Humidity
    00:00 +26°C° 0 mm 3 mps 752 mmHg 89%
    01:00 +26°C° 0 mm 3 mps 752 mmHg 90%
    02:00 +25°C° 0 mm 3 mps 752 mmHg 92%
    03:00 +25°C° 0 mm 3 mps 752 mmHg 93%
    04:00 +25°C° 0 mm 3 mps 752 mmHg 94%
    05:00 +26°C° 0 mm 3 mps 752 mmHg 90%
    06:00 +26°C° 0 mm 3 mps 752 mmHg 86%
    07:00 +27°C° 0 mm 3 mps 753 mmHg 82%
    08:00 +29°C° 0 mm 3 mps 753 mmHg 71%
    09:00 +31°C° 0 mm 3 mps 752 mmHg 61%
    10:00 +34°C° 0 mm 3 mps 753 mmHg 51%
    11:00 +34°C° 0 mm 4 mps 752 mmHg 48%
    12:00 +35°C° 0 mm 4 mps 752 mmHg 45%
    13:00 +36°C° 0 mm 4 mps 751 mmHg 42%
    14:00 +35°C° 0.1 mm 4 mps 751 mmHg 47%
    15:00 +34°C° 0.1 mm 4 mps 750 mmHg 52%
    16:00 +33°C° 0.1 mm 4 mps 750 mmHg 57%
    17:00 +30°C° 0 mm 4 mps 750 mmHg 64%
    18:00 +29°C° 0 mm 3 mps 751 mmHg 71%
    19:00 +27°C° 0 mm 3 mps 751 mmHg 78%
    20:00 +27°C° 0 mm 3 mps 751 mmHg 81%
    21:00 +26°C° 0 mm 3 mps 752 mmHg 84%
    22:00 +26°C° 0 mm 3 mps 752 mmHg 87%
    23:00 +26°C° 0 mm 3 mps 752 mmHg 89%

    Tomorrow, 26 November, Sunday

    Time Temperature Precipitation Wind Pressure Humidity
    00:00 +25°C° 0 mm 2 mps 752 mmHg 91%
    01:00 +25°C° 0 mm 2 mps 751 mmHg 93%
    02:00 +25°C° 0 mm 2 mps 751 mmHg 93%
    03:00 +25°C° 0 mm 2 mps 751 mmHg 94%
    04:00 +25°C° 0 mm 2 mps 751 mmHg 95%
    05:00 +25°C° 0 mm 2 mps 751 mmHg 90%
    06:00 +26°C° 0 mm 2 mps 752 mmHg 86%
    07:00 +27°C° 0 mm 2 mps 752 mmHg 82%
    08:00 +29°C° 0 mm 3 mps 752 mmHg 71%
    09:00 +31°C° 0 mm 3 mps 752 mmHg 59%
    10:00 +34°C° 0 mm 3 mps 752 mmHg 48%
    11:00 +35°C° 0 mm 4 mps 752 mmHg 45%
    12:00 +36°C° 0 mm 4 mps 751 mmHg 41%
    13:00 +37°C° 0 mm 4 mps 751 mmHg 38%
    14:00 +36°C° 0 mm 4 mps 750 mmHg 43%
    15:00 +35°C° 0 mm 4 mps 750 mmHg 48%
    16:00 +34°C° 0 mm 5 mps 749 mmHg 53%
    17:00 +32°C° 0 mm 4 mps 749 mmHg 61%
    18:00 +29°C° 0 mm 4 mps 750 mmHg 69%
    19:00 +27°C° 0 mm 4 mps 750 mmHg 77%
    20:00 +27°C° 0 mm 4 mps 751 mmHg 80%
    21:00 +26°C° 0 mm 3 mps 751 mmHg 83%
    22:00 +26°C° 0 mm 3 mps 752 mmHg 86%
    23:00 +26°C° 0 mm 3 mps 751 mmHg 88%

    Day after tomorrow, 27 November, Monday

    Time Temperature Precipitation Wind Pressure Humidity
    00:00 +25°C° 0 mm 3 mps 751 mmHg 89%
    01:00 +25°C° 0 mm 3 mps 750 mmHg 91%
    02:00 +25°C° 0 mm 3 mps 750 mmHg 91%
    03:00 +25°C° 0 mm 2 mps 750 mmHg 92%
    04:00 +25°C° 0 mm 2 mps 750 mmHg 92%
    05:00 +25°C° 0 mm 2 mps 750 mmHg 88%
    06:00 +26°C° 0 mm 3 mps 751 mmHg 83%
    07:00 +27°C° 0 mm 3 mps 751 mmHg 79%
    08:00 +28°C° 0 mm 3 mps 751 mmHg 69%
    09:00 +30°C° 0 mm 3 mps 751 mmHg 60%
    10:00 +33°C° 0 mm 4 mps 751 mmHg 51%
    11:00 +34°C° 0 mm 4 mps 751 mmHg 46%
    12:00 +35°C° 0 mm 4 mps 750 mmHg 41%
    13:00 +36°C° 0 mm 5 mps 750 mmHg 36%
    14:00 +36°C° 0 mm 5 mps 749 mmHg 40%
    15:00 +35°C° 0 mm 5 mps 749 mmHg 43%
    16:00 +34°C° 0 mm 5 mps 749 mmHg 47%
    17:00 +32°C° 0 mm 5 mps 749 mmHg 56%
    18:00 +29°C° 0 mm 5 mps 749 mmHg 66%
    19:00 +27°C° 0 mm 4 mps 750 mmHg 75%
    20:00 +27°C° 0 mm 4 mps 751 mmHg 79%
    21:00 +27°C° 0 mm 4 mps 751 mmHg 82%
    22:00 +26°C° 0 mm 5 mps 752 mmHg 86%
    23:00 +26°C° 0.1 mm 5 mps 751 mmHg 87%

    28 November, Tuesday

    Time Temperature Precipitation Wind Pressure Humidity
    00:00 +26°C° 0.1 mm 5 mps 751 mmHg 88%
    01:00 +26°C° 0.1 mm 5 mps 750 mmHg 89%
    02:00 +25°C° 0.1 mm 4 mps 750 mmHg 90%
    03:00 +25°C° 0.1 mm 4 mps 750 mmHg 91%
    04:00 +25°C° 0.1 mm 4 mps 750 mmHg 92%
    05:00 +26°C° 0.1 mm 4 mps 750 mmHg 89%
    06:00 +26°C° 0.1 mm 4 mps 751 mmHg 87%
    07:00 +27°C° 0.1 mm 4 mps 751 mmHg 84%
    08:00 +28°C° 0.1 mm 4 mps 752 mmHg 76%
    09:00 +30°C° 0.1 mm 4 mps 752 mmHg 67%
    10:00 +32°C° 0.1 mm 4 mps 752 mmHg 59%
    11:00 +32°C° 0.2 mm 4 mps 751 mmHg 57%
    12:00 +33°C° 0.2 mm 5 mps 751 mmHg 56%
    13:00 +33°C° 0.2 mm 5 mps 750 mmHg 54%
    14:00 +32°C° 0 mm 5 mps 750 mmHg 58%
    15:00 +32°C° 0 mm 4 mps 750 mmHg 61%
    16:00 +30°C° 0 mm 4 mps 750 mmHg 64%
    17:00 +29°C° 0 mm 4 mps 750 mmHg 69%
    18:00 +28°C° 0 mm 4 mps 751 mmHg 75%
    19:00 +27°C° 0 mm 4 mps 751 mmHg 81%
    20:00 +27°C° 0 mm 4 mps 752 mmHg 83%
    21:00 +27°C° 0 mm 4 mps 752 mmHg 86%
    22:00 +26°C° 0 mm 4 mps 753 mmHg 89%
    23:00 +26°C° 0 mm 4 mps 752 mmHg 91%

    29 November, Wednesday

    Time Temperature Precipitation Wind Pressure Humidity
    00:00 +26°C° 0 mm 3 mps 752 mmHg 93%
    01:00 +25°C° 0 mm 3 mps 751 mmHg 95%
    02:00 +25°C° 0.1 mm 3 mps 751 mmHg 95%
    03:00 +25°C° 0.1 mm 3 mps 751 mmHg 96%
    04:00 +25°C° 0.1 mm 3 mps 751 mmHg 96%
    05:00 +26°C° 0.2 mm 3 mps 751 mmHg 93%
    06:00 +26°C° 0.2 mm 4 mps 752 mmHg 90%
    07:00 +27°C° 0.2 mm 4 mps 752 mmHg 86%
    08:00 +28°C° 0.2 mm 4 mps 752 mmHg 77%
    09:00 +30°C° 0.2 mm 4 mps 752 mmHg 67%
    10:00 +33°C° 0.2 mm 4 mps 752 mmHg 58%
    11:00 +33°C° 0.6 mm 5 mps 752 mmHg 56%
    12:00 +34°C° 0.6 mm 5 mps 751 mmHg 55%
    13:00 +34°C° 0.6 mm 5 mps 751 mmHg 53%
    14:00 +34°C° 0.7 mm 5 mps 750 mmHg 55%
    15:00 +34°C° 0.7 mm 5 mps 750 mmHg 57%
    16:00 +33°C° 0.7 mm 5 mps 750 mmHg 58%
    17:00 +32°C° 0.3 mm 4 mps 750 mmHg 65%
    18:00 +29°C° 0.3 mm 4 mps 751 mmHg 72%
    19:00 +28°C° 0.3 mm 3 mps 751 mmHg 79%
    20:00 +27°C° 0.6 mm 3 mps 752 mmHg 83%
    21:00 +27°C° 0.6 mm 3 mps 752 mmHg 86%
    22:00 +26°C° 0.6 mm 3 mps 752 mmHg 90%
    23:00 +26°C° 0.2 mm 3 mps 752 mmHg 91%

    30 November, Thursday

    Time Temperature Precipitation Wind Pressure Humidity
    00:00 +26°C° 0.2 mm 4 mps 751 mmHg 93%
    01:00 +26°C° 0.2 mm 4 mps 751 mmHg 95%
    02:00 +26°C° 0.2 mm 4 mps 751 mmHg 94%
    03:00 +26°C° 0.2 mm 4 mps 751 mmHg 94%
    04:00 +26°C° 0.2 mm 4 mps 751 mmHg 93%
    05:00 +26°C° 0.2 mm 4 mps 751 mmHg 90%
    06:00 +27°C° 0.2 mm 4 mps 751 mmHg 88%
    07:00 +27°C° 0.2 mm 4 mps 752 mmHg 85%
    08:00 +29°C° 0.3 mm 4 mps 752 mmHg 79%
    09:00 +30°C° 0.3 mm 4 mps 752 mmHg 72%
    10:00 +32°C° 0.3 mm 4 mps 752 mmHg 65%
    11:00 +33°C° 0.8 mm 4 mps 751 mmHg 64%
    12:00 +33°C° 0.8 mm 5 mps 750 mmHg 62%
    13:00 +34°C° 0.8 mm 5 mps 750 mmHg 60%
    14:00 +34°C° 0.3 mm 5 mps 749 mmHg 61%
    15:00 +33°C° 0.3 mm 5 mps 749 mmHg 62%
    16:00 +33°C° 0.3 mm 5 mps 749 mmHg 63%
    17:00 +32°C° 0.1 mm 4 mps 749 mmHg 70%
    18:00 +29°C° 0.1 mm 4 mps 750 mmHg 77%
    19:00 +28°C° 0.1 mm 4 mps 750 mmHg 83%
    20:00 +27°C° 0.2 mm 4 mps 751 mmHg 86%
    21:00 +27°C° 0.2 mm 4 mps 751 mmHg 88%
    22:00 +27°C° 0.2 mm 4 mps 752 mmHg 91%
    23:00 +27°C° 0.2 mm 4 mps 751 mmHg 91%
    Show more